Content
SEND FEEDBACK

Daily
Averages
Monthly
Summary
United States of America

ANN ARBOR, MICHIGAN


Home > North America > United States > Michigan
Elevation: 759 feet     Latitude: 42 17N     Longitude: 083 43W

WEATHER
 
SELECT A DAY
Number of Records: 208,835;   Date Range: 1/1/95 - 12/17/14
 
SHARE

PRINT THIS DATA

[ ← Previous Day ]
WEATHER ALMANAC - AUGUST 27, 2014
[ Next Day → ]
[ °C ]   °F
Weather ElementAverageHighLow
Temperature68.7 °F79 °F (2:53 pm)57.9 °F (7:53 am)
Dewpoint60.6 °F66 °F (10:53 am)55 °F (5:14 am)
Humidity76.5 %93 % (12:53 am)50 % (4:53 pm)
Barometer30.10 in30.13 in (5:53 am)30.07 in (10:53 pm)
Wind Speed5.2 mph11.5 mph (6:53 pm)
Weather ElementAverage
Visibility9.4 mi
Wind DirectionSSE (155.3 °)

Weather ElementTotal
Precipitation---
Cooling Degree Days3.5 (Base 65)
Growing Degree Days18.5 (Base 50)
Averaged from 32 records on August 27, 2014
WEATHER CONDITIONS BREAKOUT
WIND DIRECTION BREAKOUT
WEATHER BY HOUR - AUGUST 27, 2014
[ °C ]   °F
Local TimeTemperatureDewpointHumidityBarometerVisibilityWind DirectionWind SpeedGust SpeedPrecipitationEventsConditions
12:53 AM69.1 °F66.0 °F90 %30.07 in10.0 miWNW (300°)4.6 mphClear
1:53 AM69.1 °F64.9 °F87 %30.07 in10.0 miNW (310°)6.9 mphClear
2:53 AM68.0 °F64.0 °F87 %30.07 in10.0 miNNW (330°)4.6 mphScattered Clouds
3:53 AM66.9 °F64.0 °F90 %30.07 in10.0 miNNW (340°)5.8 mphPartly Cloudy
4:44 AM66.9 °F63.0 °F87 %30.08 in10.0 miNorth (350°)4.6 mphPartly Cloudy
4:53 AM66.0 °F63.0 °F90 %30.07 in10.0 miNorth (350°)4.6 mphScattered Clouds
5:15 AM66.0 °F63.0 °F90 %30.08 in10.0 miNorth (10°)5.8 mphMostly Cloudy
5:53 AM66.9 °F63.0 °F87 %30.08 in8.0 miNorth (10°)6.9 mphOvercast
6:53 AM68.0 °F64.0 °F87 %30.09 in9.0 miCalmOvercast
7:53 AM66.9 °F62.1 °F84 %30.10 in10.0 miEast (90°)8.1 mphOvercast
8:42 AM66.9 °F61.0 °F81 %30.13 in10.0 miENE (60°)5.8 mphOvercast
8:53 AM66.9 °F61.0 °F81 %30.12 in10.0 miENE (60°)5.8 mphOvercast
9:06 AM66.9 °F61.0 °F81 %30.12 in10.0 miENE (60°)6.9 mphOvercast
9:28 AM66.9 °F61.0 °F81 %30.12 in10.0 miNE (50°)8.1 mphOvercast
9:53 AM68.0 °F61.0 °F78 %30.12 in10.0 miNNE (30°)8.1 mphOvercast
10:53 AM71.1 °F62.1 °F73 %30.12 in10.0 miNE (50°)5.8 mphOvercast
10:56 AM70.0 °F61.0 °F73 %30.13 in10.0 miNE (50°)5.8 mphMostly Cloudy
11:18 AM71.1 °F61.0 °F70 %30.13 in10.0 miCalmPartly Cloudy
11:45 AM72.0 °F61.0 °F68 %30.13 in10.0 miNorth (360°)4.6 mphMostly Cloudy
11:53 AM73.0 °F62.1 °F68 %30.12 in10.0 miNorth (350°)4.6 mphMostly Cloudy
12:53 PM73.9 °F61.0 °F64 %30.11 in10.0 miCalmMostly Cloudy
1:53 PM79.0 °F61.0 °F54 %30.10 in10.0 miNorth (350°)9.2 mphScattered Clouds
3:53 PM78.1 °F59.0 °F52 %30.08 in10.0 miNorth (360°)8.1 mphPartly Cloudy
4:53 PM78.1 °F57.9 °F50 %30.08 in10.0 miNNE (20°)8.1 mphPartly Cloudy
5:53 PM75.0 °F57.0 °F53 %30.08 in10.0 miNNW (330°)9.2 mphClear
6:53 PM73.0 °F57.0 °F57 %30.08 in10.0 miNorth (350°)11.5 mphClear
7:53 PM72.0 °F55.9 °F57 %30.08 in10.0 miNorth (360°)6.9 mphClear
8:53 PM68.0 °F57.0 °F68 %30.09 in10.0 miNE (40°)4.6 mphClear
9:53 PM61.0 °F57.0 °F87 %30.10 in10.0 miCalmClear
10:53 PM59.0 °F55.9 °F90 %30.10 in10.0 miCalmClear
11:46 PM57.9 °F55.9 °F93 %30.11 in1.5 miCalmClear
11:53 PM57.9 °F55.0 °F90 %30.11 in1.0 miCalmClear
Hourly data recorded from KARB, located miles away from Ann Arbor, Michigan







STORIES FROM OUR PARTNERS